STARLINK-34346

Satellite information

Favourite Embed

Satellite Type and Status

PAYLOADIN ORBIT

Key statistics

Satellite STARLINK-34346 at a glance.

Uptime

200

Days in orbit

Revolutions

≈ 15.1

Per day

Orbit

SSO

Sun Synchronous Orbit

Inclination

97.6

Latest

Satellite identification and parameters

Extended collection of information and parameters for STARLINK-34346.

Object identification

Identified? True

Debris? False

Object name: STARLINK-34346

International designator: 2025-112K

Object number (NORAD): 64155

Object ID (CCSDS): 64155

Country: UNITED STATES OF AMERICA (US)

Current information (Y/N): Y

RCS size: LARGE

Orbital parameters

Period: 95.639 minutes

Inclination: 97.6039 deg

SMA: 6927.613 km

Apoapsis: 550.652 km

Periapsis: 548.304 km

RAAN: 35.3729 deg

Eccentricy: 0.00016947

Argument of periapsis: 81.8873 deg

Mean anomaly: 278.2546 deg

Mean motion: 15.05661462 rev/day

Mean motion (dot): 0.00005387 rev/day2

B* drag term: 0.00037717588 1/REarth

Two-line elements (TLE)

Creation date: Dec. 12, 2025, 10:14 a.m.

Reference frame: TEME

Reference center: EARTH

Epoch: Dec. 12, 2025, 5:53 a.m. UTC

TLE line 0: 0 STARLINK-34346

TLE line 1: 1 64155U 25112K 25346.24570189 .00005387 00000-0 37718-3 0 9990

TLE line 2: 2 64155 97.6039 35.3729 0001695 81.8873 278.2546 15.05661462 30151

Live tracking on map

Real-time ground track for satellite STARLINK-34346.

In-orbit conjunctions

There are no conjunctions computed for STARLINK-34346, at the moment. Check back to stay up to date, as we update our databases every day.

Go to all conjunctions

Associated space launch

A batch of 24 satellites for the Starlink mega-constellation - SpaceX's project for space-based Internet communication system.

STARLINK-34346 was lifted into orbit during the mission ‘Falcon 9 Block 5 | Starlink Group 17-1’, on board a Falcon 9 space rocket.

The launch took place on May 27, 2025, 4:57 p.m. from Space Launch Complex 4E.

For more information about the launch, click the button.

Launch to space Falcon 9 Block 5 | Starlink Group 17-1
Falcon 9 Block 5 | Starlink Group 17-1

Agency: SpaceX

Status: Launch Successful

Launch date: May 27, 2025, 4:57 p.m. UTC

Rocket: Falcon 9

Launch pad: Space Launch Complex 4E

Location: Vandenberg SFB, CA, USA

...

Latest news about this satellite

News about space launch
Live coverage: SpaceX to launch 24 Starlink satellites to polar orbit from California

The mission will be SpaceX’s 480th Falcon 9 rocket launch to date. Launch teams are targeting a liftoff from Space Launch Complex 4 East at 9:14 a.m. PDT (12:14 p.m. EDT, 1614 UTC).

News about space launch
Launch Roundup: SpaceX to start new Starlink shell; China, Russia to launch unknown payloads

This week, SpaceX will begin building a new shell for its Starlink constellation, launching from… The post Launch Roundup: SpaceX to start new Starlink shell; China, Russia to launch unknown payloads appeared first on NASASpaceFlight.com.


Newsletter sign-up

Weekly statistics, charts and insights to help you stay on top of the space industry.